CDT,Max TemperatureF,Mean TemperatureF,Min TemperatureF,Max Dew PointF,MeanDew PointF,Min DewpointF,Max Humidity, Mean Humidity, Min Humidity, Max Sea Level PressureIn, Mean Sea Level PressureIn, Min Sea Level PressureIn, Max VisibilityMiles, Mean VisibilityMiles, Min VisibilityMiles, Max Wind SpeedMPH, Mean Wind SpeedMPH, Max Gust SpeedMPH,PrecipitationIn, CloudCover, Events, WindDirDegrees
2013-3-1,76,59,41,42,27,17,59,35,11,30.30,30.23,30.14,10,10,10,21,7,24,0.00,0,,247
2013-3-2,71,58,44,40,29,22,76,46,16,30.42,30.32,30.25,10,10,10,26,13,35,0.00,0,,19
2013-3-3,78,58,37,51,37,22,67,46,25,30.30,30.17,30.01,10,10,10,28,14,32,0.00,0,,179
2013-3-4,93,76,59,60,55,45,80,50,20,29.99,29.86,29.75,10,10,10,31,21,36,0.00,0,,172
2013-3-5,75,65,55,61,40,20,90,53,15,30.32,30.11,29.80,10,10,10,39,17,47,0.00,2,,13
2013-3-6,66,55,43,44,31,21,66,46,25,30.44,30.33,30.24,10,10,10,21,10,25,0.00,0,,56
2013-3-7,77,63,49,60,55,43,89,70,50,30.22,30.16,30.11,10,10,10,25,13,30,0.00,5,,110
2013-3-8,80,74,67,64,62,61,81,71,60,30.12,30.06,30.01,10,10,10,30,20,35,T,7,Rain,138
2013-3-9,80,75,69,66,64,63,84,73,62,30.01,29.82,29.67,10,9,6,41,26,49,0.00,7,,155
2013-3-10,82,70,58,68,54,31,90,54,17,30.08,29.81,29.60,10,7,2,35,18,41,0.06,6,Rain,348
2013-3-11,76,63,49,36,27,18,54,33,11,30.17,30.09,30.01,10,10,10,25,11,37,0.00,1,,7
2013-3-12,81,63,44,48,39,26,72,49,25,30.23,30.14,30.09,10,10,10,18,8,24,0.00,0,,156
2013-3-13,75,59,43,54,48,43,93,66,38,30.41,30.33,30.23,10,10,9,18,9,24,0.00,1,Fog,95
2013-3-14,81,64,46,57,52,45,100,70,39,30.39,30.32,30.26,10,10,5,23,11,33,0.00,1,Fog,133
2013-3-15,84,66,47,59,52,45,93,64,34,30.27,30.17,30.05,10,7,0,30,14,37,0.00,1,Fog,170
2013-3-16,84,72,60,63,60,56,90,71,51,30.04,29.91,29.80,10,10,10,39,20,45,0.00,2,,160
2013-3-17,88,77,65,67,64,62,93,70,46,29.84,29.75,29.65,10,10,7,26,17,35,0.00,3,,157
2013-3-18,92,81,69,67,65,60,84,60,36,29.86,29.78,29.71,10,9,6,23,9,30,0.00,4,,128
2013-3-19,84,74,64,67,64,56,93,74,55,29.98,29.89,29.82,10,8,4,20,12,24,T,5,,91
2013-3-20,81,72,63,67,56,45,84,62,39,30.14,30.04,29.89,10,9,6,33,17,40,T,5,Rain,67
2013-3-21,78,69,60,65,58,52,79,65,50,30.03,29.85,29.68,10,10,10,28,16,35,0.00,6,,149
2013-3-22,85,79,72,70,68,66,87,73,59,29.73,29.67,29.63,10,9,7,21,14,28,0.00,7,,147
2013-3-23,88,76,64,70,68,60,87,67,46,29.70,29.65,29.57,10,7,2,17,8,26,T,5,Rain,95
2013-3-24,72,64,56,65,45,17,93,53,13,30.13,29.89,29.67,10,6,0,36,19,43,T,4,Fog-Rain,354
2013-3-25,66,57,48,30,26,17,50,33,16,30.35,30.25,30.13,10,10,10,24,14,29,0.00,0,,66
2013-3-26,69,58,47,34,29,26,46,34,21,30.47,30.38,30.33,10,10,10,20,13,26,0.00,0,,89
2013-3-27,72,60,48,55,44,28,68,55,41,30.34,30.27,30.19,10,10,10,23,14,31,0.00,6,,133
2013-3-28,78,72,65,59,58,55,78,64,50,30.21,30.17,30.13,10,10,10,25,15,31,0.00,7,,140
2013-3-29,83,73,62,63,60,58,87,66,45,30.17,30.12,30.06,10,10,10,26,16,35,0.00,3,,136
2013-3-30,87,77,66,66,64,61,87,68,48,30.10,30.02,29.93,10,10,10,28,15,33,T,3,,143
2013-3-31,88,79,69,67,66,64,90,71,51,29.96,29.90,29.79,10,10,7,26,15,32,T,4,Rain-Thunderstorm,148